GW5267 Weather Reports


Display with metric or nautical units.
time (UTC)temp
F
wind
direction
speed
MPH
gust
MPH
rain 1hr
in
rain 24hr
in
rain mn
in
humidity
%
barometer
mb
20260505034513 59 176 2.0 2.0 0.00 0.00 0.00 66 1011.2
20260505034010 59 158 2.0 2.0 0.00 0.00 0.00 66 1011.4
20260505033507 60 237 1.0 2.0 0.00 0.00 0.00 65 1011.3
20260505033005 60 234 0.0 0.0 0.00 0.00 0.00 66 1011.4
20260505032502 60 233 1.0 3.0 0.00 0.00 0.00 63 1011.3
20260505031959 60 160 1.0 2.0 0.00 0.00 0.00 63 1011.4
20260505031456 60 239 0.0 3.0 0.00 0.00 0.00 63 1011.4
20260505030952 60 272 0.0 2.0 0.00 0.00 0.00 65 1011.6
20260505030449 60 152 1.0 4.0 0.00 0.00 0.00 64 1011.5
20260505025944 60 152 2.0 3.0 0.00 0.00 0.00 63 1011.4
20260505025442 60 216 1.0 1.0 0.00 0.00 0.00 64 1011.5
20260505024940 61 243 0.0 4.0 0.00 0.00 0.00 63 1011.4
20260505024437 60 131 1.0 1.0 0.00 0.00 0.00 64 1011.4
20260505023934 60 156 0.0 2.0 0.00 0.00 0.00 64 1011.6
20260505023431 61 292 1.0 2.0 0.00 0.00 0.00 65 1011.7
20260505022928 61 157 0.0 1.0 0.00 0.00 0.00 62 1011.5
20260505022426 62 164 1.0 2.0 0.00 0.00 0.00 62 1011.5
20260505021923 62 188 2.0 4.0 0.00 0.00 0.00 61 1011.5
20260505021419 62 85 1.0 4.0 0.00 0.00 0.00 61 1011.6
20260505020915 62 283 2.0 3.0 0.00 0.00 0.00 61 1011.5
20260505020410 62 201 3.0 6.0 0.00 0.00 0.00 61 1011.7
20260505015908 62 124 0.0 4.0 0.00 0.00 0.00 61 1011.7
20260505015405 62 176 3.0 4.0 0.00 0.00 0.00 61 1011.8
20260505014902 62 252 2.0 7.0 0.00 0.00 0.00 60 1011.9
20260505014359 62 248 3.0 4.0 0.00 0.00 0.00 61 1011.7
20260505013856 63 203 3.0 8.0 0.00 0.00 0.00 60 1011.6
20260505013353 63 211 4.0 6.0 0.00 0.00 0.00 60 1011.8
20260505012851 63 157 2.0 8.0 0.00 0.00 0.00 61 1011.5
20260505012349 63 201 4.0 8.0 0.00 0.00 0.00 60 1011.5
20260505011844 62 161 3.0 4.0 0.00 0.00 0.00 60 1011.5
20260505011342 63 259 1.0 6.0 0.00 0.00 0.00 60 1011.5
20260505010837 63 214 5.0 6.0 0.00 0.00 0.00 60 1011.6
20260505010333 63 210 2.0 3.0 0.00 0.00 0.00 60 1011.4
20260505005830 63 273 0.0 0.0 0.00 0.00 0.00 59 1011.3
20260505005327 64 125 1.0 4.0 0.00 0.00 0.00 59 1011.1
20260505004824 63 316 0.0 2.0 0.00 0.00 0.00 60 1010.9
20260505004320 63 209 2.0 3.0 0.00 0.00 0.00 58 1011.2
20260505003818 63 222 0.0 3.0 0.00 0.00 0.00 59 1010.9
20260505003315 63 204 1.0 2.0 0.00 0.00 0.00 60 1010.9
20260505002811 64 161 3.0 6.0 0.00 0.00 0.00 59 1010.9
20260505002308 64 185 2.0 3.0 0.00 0.00 0.00 58 1011.1
20260505001807 64 193 2.0 3.0 0.00 0.00 0.00 58 1011.2
20260505001303 64 187 1.0 6.0 0.00 0.00 0.00 57 1011.3
20260505000801 64 268 0.0 6.0 0.00 0.00 0.00 57 1011.2
20260505000258 64 282 1.0 4.0 0.00 0.00 0.00 57 1011.3
20260504235754 65 260 1.0 8.0 0.00 0.00 0.00 57 1011.1
20260504235251 65 250 3.0 6.0 0.00 0.00 0.00 56 1010.7
20260504234748 65 201 4.0 6.0 0.00 0.00 0.00 56 1010.9
20260504234246 65 264 5.0 8.0 0.00 0.00 0.00 56 1010.8
20260504233742 65 201 7.0 8.0 0.00 0.00 0.00 56 1010.9
20260504233238 65 265 2.0 7.0 0.00 0.00 0.00 56 1010.7
20260504232735 65 233 1.0 9.0 0.00 0.00 0.00 57 1010.8
20260504232232 65 142 1.0 2.0 0.00 0.00 0.00 56 1010.9
20260504231729 65 291 1.0 8.0 0.00 0.00 0.00 57 1010.8
20260504231225 66 258 2.0 8.0 0.00 0.00 0.00 55 1010.7
20260504230721 66 230 2.0 8.0 0.00 0.00 0.00 55 1011.1
20260504230220 66 229 4.0 4.0 0.00 0.00 0.00 57 1010.8
20260504225718 66 208 8.0 15.0 0.00 0.00 0.00 54 1011.1
20260504225214 66 302 2.0 13.0 0.00 0.00 0.00 54 1011.1
20260504224711 66 155 4.0 7.0 0.00 0.00 0.00 54 1011.1
20260504224209 67 242 5.0 7.0 0.00 0.00 0.00 54 1011.1
20260504223705 67 256 6.0 11.0 0.00 0.00 0.00 53 1010.8
20260504223200 67 227 5.0 9.0 0.00 0.00 0.00 54 1011.1
20260504222658 67 300 1.0 6.0 0.00 0.00 0.00 54 1010.8
20260504222154 67 242 5.0 10.0 0.00 0.00 0.00 55 1010.8
20260504221652 67 255 1.0 11.0 0.00 0.00 0.00 54 1010.8
20260504221149 67 246 5.0 8.0 0.00 0.00 0.00 53 1010.8
20260504220645 68 217 5.0 13.0 0.00 0.00 0.00 53 1010.5
20260504220143 69 295 3.0 10.0 0.00 0.00 0.00 53 1010.5
20260504215639 68 227 5.0 9.0 0.00 0.00 0.00 50 1010.6
20260504215137 68 213 4.0 9.0 0.00 0.00 0.00 51 1010.7
20260504214632 67 271 3.0 8.0 0.00 0.00 0.00 51 1010.8
20260504214128 67 258 4.0 8.0 0.00 0.00 0.00 52 1010.8
20260504213624 68 259 13.0 17.0 0.00 0.00 0.00 51 1010.7
20260504213116 67 264 7.0 13.0 0.00 0.00 0.00 51 1010.5
20260504212612 69 257 9.0 14.0 0.00 0.00 0.00 51 1010.8
20260504212110 68 289 5.0 13.0 0.00 0.00 0.00 51 1010.8
20260504211607 67 136 8.0 11.0 0.00 0.00 0.00 51 1010.7
20260504211103 67 248 6.0 14.0 0.00 0.00 0.00 52 1010.7
20260504210601 67 249 5.0 7.0 0.00 0.00 0.00 53 1010.6
20260504210057 67 183 5.0 7.0 0.00 0.00 0.00 52 1010.7
20260504205555 67 272 6.0 9.0 0.00 0.00 0.00 52 1010.6
20260504205053 67 193 11.0 11.0 0.00 0.00 0.00 52 1010.6
20260504204550 68 201 7.0 14.0 0.00 0.00 0.00 51 1010.6
20260504204049 67 268 8.0 16.0 0.00 0.00 0.00 51 1010.6
20260504203547 68 275 10.0 19.0 0.00 0.00 0.00 50 1010.6
20260504203044 68 258 6.0 17.0 0.00 0.00 0.00 51 1010.6
20260504202539 68 294 4.0 14.0 0.00 0.00 0.00 51 1010.8
20260504202037 70 248 9.0 14.0 0.00 0.00 0.00 48 1010.8
20260504201533 69 332 9.0 11.0 0.00 0.00 0.00 53 1010.6
20260504201032 69 188 7.0 9.0 0.00 0.00 0.00 51 1010.6
20260504200527 67 303 6.0 9.0 0.00 0.00 0.00 54 1010.7
20260504200025 68 223 3.0 13.0 0.00 0.00 0.00 54 1010.7
20260504195520 67 186 6.0 13.0 0.00 0.00 0.00 53 1010.8
20260504195017 67 170 6.0 10.0 0.00 0.00 0.00 53 1010.7
20260504194514 68 191 8.0 13.0 0.00 0.00 0.00 53 1010.8
20260504194009 67 178 10.0 14.0 0.00 0.00 0.00 51 1010.9
20260504193506 67 200 7.0 17.0 0.00 0.00 0.00 52 1010.9
20260504193005 67 222 10.0 11.0 0.00 0.00 0.00 52 1011.3
20260504192502 67 183 10.0 13.0 0.00 0.00 0.00 52 1011.2
20260504192001 68 237 2.0 10.0 0.00 0.00 0.00 54 1011.2
20260504191458 68 257 13.0 16.0 0.00 0.00 0.00 52 1011.2
20260504190954 67 284 4.0 8.0 0.00 0.00 0.00 53 1011.2
20260504190449 68 266 14.0 17.0 0.00 0.00 0.00 52 1011.5
20260504185946 67 168 9.0 17.0 0.00 0.00 0.00 58 1011.3
20260504185444 67 274 10.0 13.0 0.00 0.00 0.00 53 1011.6
20260504184939 67 172 3.0 7.0 0.00 0.00 0.00 54 1011.4
20260504184436 68 282 11.0 14.0 0.00 0.00 0.00 53 1011.6
20260504183931 66 247 10.0 16.0 0.00 0.00 0.00 53 1011.4
20260504183429 67 278 5.0 9.0 0.00 0.00 0.00 55 1011.5
20260504182927 67 187 9.0 13.0 0.00 0.00 0.00 54 1011.5
20260504182423 67 205 3.0 13.0 0.00 0.00 0.00 55 1011.4
20260504181921 67 277 9.0 14.0 0.00 0.00 0.00 54 1011.5
20260504181418 66 287 6.0 8.0 0.00 0.00 0.00 56 1011.4
20260504180916 66 240 9.0 15.0 0.00 0.00 0.00 54 1011.6
20260504180415 66 268 5.0 15.0 0.00 0.00 0.00 55 1011.6
20260504175913 65 275 8.0 14.0 0.00 0.00 0.00 56 1011.9
20260504175409 65 200 9.0 18.0 0.00 0.00 0.00 56 1012.0
20260504174907 66 257 3.0 9.0 0.00 0.00 0.00 57 1011.8
20260504174404 66 225 7.0 13.0 0.00 0.00 0.00 55 1012.1
20260504173902 65 172 9.0 19.0 0.00 0.00 0.00 55 1012.1
20260504173358 65 187 5.0 18.0 0.00 0.00 0.00 55 1012.2
20260504172855 65 235 13.0 21.0 0.00 0.00 0.00 53 1012.2
20260504172351 65 271 6.0 14.0 0.00 0.00 0.00 57 1012.2
20260504171847 65 241 11.0 17.0 0.00 0.00 0.00 54 1012.1
20260504171345 64 271 5.0 18.0 0.00 0.00 0.00 54 1012.1
20260504170842 65 180 4.0 13.0 0.00 0.00 0.00 56 1012.2
20260504170338 66 290 6.0 11.0 0.00 0.00 0.00 54 1012.2
20260504160257 62 259 6.0 11.0 0.00 0.00 0.00 54 1013.2
20260504150722 60 273 4.0 18.0 0.00 0.00 0.00 54 1013.8
20260504150219 60 270 7.0 16.0 0.00 0.00 0.00 54 1014.1
20260504141148 59 291 12.0 14.0 0.00 0.00 0.00 51 1013.6
20260504140645 60 251 5.0 11.0 0.00 0.00 0.00 51 1013.6
20260504140140 59 303 8.0 13.0 0.00 0.00 0.00 55 1013.8
20260504130609 55 271 2.0 8.0 0.00 0.00 0.00 56 1014.0
20260504130106 55 258 5.0 10.0 0.00 0.00 0.00 54 1014.1
20260504110456 47 161 2.0 3.0 0.00 0.00 0.00 69 1014.3
20260504100418 45 186 1.0 1.0 0.00 0.00 0.00 68 1014.4
20260504081811 44 302 1.0 2.0 0.00 0.00 0.00 67 1015.2
20260504081308 44 314 0.0 0.0 0.00 0.00 0.00 70 1015.2
20260504080804 44 314 0.0 0.0 0.00 0.00 0.00 69 1015.3
20260504080301 44 314 0.0 0.0 0.00 0.00 0.00 72 1015.4
20260504070228 43 314 0.0 0.0 0.00 0.00 0.00 82 1015.4
20260504060149 43 314 0.0 0.0 0.00 0.00 0.00 67 1015.6
20260504050617 42 314 0.0 0.0 0.00 0.00 0.00 71 1015.8
20260504050114 42 314 0.0 0.0 0.00 0.00 0.00 68 1015.9
20260504045611 42 314 0.0 0.0 0.00 0.00 0.00 71 1015.7
20260504045106 42 314 0.0 0.0 0.00 0.00 0.00 67 1015.9
20260504044604 42 314 0.0 0.0 0.00 0.00 0.00 68 1015.8
20260504044100 42 314 0.0 0.0 0.00 0.00 0.00 68 1015.8
20260504043558 41 314 0.0 0.0 0.00 0.00 0.00 67 1015.8
20260504043055 41 314 0.0 0.0 0.00 0.00 0.00 69 1015.8
20260504042552 40 314 0.0 0.0 0.00 0.00 0.00 68 1015.8
20260504042044 40 314 0.0 0.0 0.00 0.00 0.00 68 1015.8
20260504041539 40 314 0.0 0.0 0.00 0.00 0.00 71 1015.9
20260504041036 40 314 0.0 0.0 0.00 0.00 0.00 74 1016.0
20260504040533 41 314 0.0 0.0 0.00 0.00 0.00 67 1016.0
20260504040030 41 314 0.0 0.0 0.00 0.00 0.00 66 1016.0
20260504035527 41 314 0.0 0.0 0.00 0.00 0.00 68 1015.9
20260504035023 41 314 0.0 0.0 0.00 0.00 0.00 67 1015.9